Terminal Aerodrome Forecast
Issued by NWS Quad Cities IA IL

Home | Current Version | Previous Version | Text Only | Print | Product List | Glossary On
Versions: 1 2 3 4 5 6 7 8 9 10 11 12 13 14 15 16 17 18 19 20 21 22 23
000
FTUS43 KDVN 271000 AAA
TAFDBQ
TAF AMD
KDBQ 271031Z 2711/2806 28008KT P6SM SKC
     FM271400 31015G21KT P6SM SCT080
     FM271700 31021G30KT P6SM BKN060
     FM280100 34012KT P6SM SCT060
      AMD NOT SKED=

USA.gov is the U.S. government's official web portal to all federal, state and local government web resources and services.